Location: Unspecified
(0.0000°N, 0.0000°E)
Time: 13:41:46
(UTC+00:00)

Vanguard 1 Rocket - Pass Details

Date: 08 February 2023
Orbit: 652 x 4223 km, 34.3° (Epoch: 30 March)

Event Time Altitude Azimuth Distance (km) Brightness Sun altitude
Rises 21:51:54 0° 278° (W) 8,455 12.8 -51.8°
Reaches altitude 10° 21:59:24 10° 269° (W) 7,391 12.4 -53.5°
Maximum altitude 22:19:16 30° 216° (SW) 4,965 11.2 -58.0°
Drops below altitude 10° 22:33:05 10° 159° (SSE) 5,106 11.2 -60.9°
Sets 22:37:08 0° 147° (SSE) 5,624 11.5 -61.8°
